Wind_Speed
16 18 19 20 19 16 15 18 15 12 10 9 8 7 7 7 7 8 7 7 8 8 8 8 8 9 9 10 11 11 11 10 9 8 8 7 6 6 5 5 4 3 3 3 3 3 3 3 3
16 19 20 22 21 17 18 20 17 14 12 10 8 8 7 7 7 8 7 7 7 8 9 9 9 10 10 10 11 11 11 11 10 9 8 7 7 6 5 5 4 4 3 3 3 3 3 3 4
17 19 22 24 25 22 19 23 20 16 13 11 9 8 7 7 7 7 7 8 8 8 9 9 9 9 10 11 12 12 12 11 10 10 9 8 7 7 6 5 4 4 4 3 3 3 3 4 4
19 20 23 24 26 26 28 26 22 19 15 13 11 9 8 8 7 7 7 7 8 8 8 9 9 9 10 12 12 13 12 12 11 10 9 9 8 7 6 5 5 4 4 4 4 4 4 5 5
21 21 22 23 26 28 30 28 24 20 18 15 13 11 10 9 7 7 7 6 6 6 8 8 9 9 10 12 12 13 12 12 11 11 10 9 8 7 6 5 5 4 4 4 4 4 5 6 6
24 22 21 21 25 29 31 29 27 23 20 17 14 13 11 9 8 8 8 7 6 6 7 8 9 10 11 12 12 12 13 12 11 11 10 9 8 8 7 6 5 5 4 4 4 4 5 6 8
27 24 21 21 24 29 32 32 30 26 23 20 16 14 13 10 8 9 8 7 6 6 7 8 9 10 11 12 12 12 12 12 11 11 10 10 9 8 7 6 6 5 4 4 4 5 6 8 9
29 27 24 22 25 28 33 34 32 29 26 23 19 16 14 11 10 9 8 7 6 7 8 9 10 11 12 12 12 12 12 12 12 11 11 10 9 8 7 6 6 5 4 4 5 5 7 8 9
32 30 26 24 26 29 33 34 33 31 28 25 22 18 15 13 11 10 9 8 6 7 8 9 10 11 12 13 13 13 12 12 12 12 11 10 9 8 8 7 7 6 6 6 6 7 8 9 10
34 31 28 27 27 29 32 33 34 32 30 26 23 20 16 15 13 12 11 9 8 7 8 10 11 12 13 13 13 13 13 13 12 12 11 11 9 9 9 8 8 8 8 8 8 9 9 10 11
35 33 31 29 28 29 30 32 33 33 32 28 25 22 19 17 15 13 11 10 9 8 9 10 11 12 13 13 13 13 13 13 13 12 12 11 10 10 10 10 10 10 10 10 10 11 12 12 13
35 34 33 30 29 29 29 30 32 33 33 31 27 24 21 18 16 14 12 10 9 9 10 11 12 12 13 13 13 13 14 14 13 13 13 12 12 12 12 12 12 12 12 13 13 14 14 15 15
35 34 34 32 29 29 29 29 30 32 33 32 28 25 23 20 18 16 13 12 11 11 11 12 13 13 13 14 14 14 14 14 14 14 14 14 14 14 15 15 15 15 15 16 16 16 17 18 18
34 34 33 32 30 29 29 29 29 31 32 32 29 26 25 22 19 17 15 13 13 13 13 13 13 14 14 15 15 15 15 15 16 16 16 16 17 17 17 18 18 18 19 19 19 20 20 21 21
31 32 31 31 29 29 29 29 29 29 31 32 30 27 26 23 21 19 17 16 15 14 15 15 15 15 16 16 16 16 17 17 17 18 18 19 19 20 20 21 22 22 23 23 23 24 24 24 23
28 29 30 31 30 29 28 28 28 27 29 31 30 29 27 24 22 21 19 18 17 16 16 17 17 17 18 18 18 18 18 19 19 20 21 22 22 23 24 25 26 26 26 27 27 27 27 27 27
26 27 29 30 30 29 29 28 28 27 28 30 30 29 27 25 24 23 21 19 19 18 18 18 19 19 20 20 20 20 21 21 22 22 24 25 27 27 28 28 29 30 30 30 30 31 31 29 29
25 26 27 29 30 29 29 29 28 27 28 29 29 29 28 26 25 23 22 21 20 20 19 19 20 21 21 23 23 23 24 24 25 26 27 28 29 30 31 31 31 32 32 32 33 34 33 32 31
25 25 26 29 29 29 29 28 28 27 27 28 28 28 27 26 25 24 23 22 23 22 22 22 22 24 24 26 27 27 28 29 29 30 30 30 31 32 32 31 32 33 34 34 34 35 34 34 33
24 24 25 27 28 29 29 29 28 27 27 27 28 27 27 27 27 26 26 25 25 24 24 24 25 26 28 28 30 30 31 33 33 32 32 32 32 32 32 31 32 33 31 33 34 33 32 32 32
23 24 25 26 27 28 29 29 29 28 28 27 28 28 28 28 28 28 28 29 28 27 26 27 27 29 30 30 31 31 32 32 34 35 36 35 34 35 34 32 32 32 32 32 30 30 31 31 32
22 24 26 26 25 25 27 26 30 29 28 28 28 28 28 28 28 29 29 30 29 29 29 29 29 31 32 32 31 33 34 34 36 36 36 36 35 35 35 35 33 33 32 32 32 34 34 34 34
21 23 24 26 26 25 26 26 29 30 29 28 27 27 27 28 28 28 29 29 30 30 30 31 31 32 32 30 31 32 34 35 36 36 36 36 36 36 36 36 37 35 34 34 35 36 35 35 36
21 22 23 25 24 24 25 25 27 29 29 28 27 26 26 27 28 28 29 29 30 31 32 32 32 32 31 31 32 33 34 35 36 35 34 35 37 38 38 39 39 37 37 37 37 37 38 39 39
20 20 20 20 22 22 26 25 27 26 26 27 26 26 26 26 27 28 28 30 31 31 32 32 33 33 33 34 35 36 36 37 37 37 37 37 38 38 39 40 40 39 39 40 40 40 40 41 41
18 20 18 16 18 21 25 26 27 24 24 25 25 25 25 25 26 27 28 30 31 32 33 33 34 34 35 35 36 37 37 38 39 39 39 40 40 40 41 41 40 40 41 42 43 43 44 44 45
18 19 19 18 19 20 23 26 26 24 23 24 25 25 26 26 27 28 29 30 32 33 34 34 34 35 36 36 37 38 39 39 40 41 42 42 42 42 42 42 42 43 44 44 46 46 47 48 48
17 18 20 17 16 18 22 24 25 24 23 23 24 25 27 27 28 29 31 32 33 34 35 35 36 36 37 38 38 39 40 41 42 42 42 43 44 43 44 45 46 46 47 47 47 48 49 51 51
15 17 18 17 17 15 17 22 24 24 24 24 25 26 27 29 30 31 31 32 33 34 35 36 37 37 38 39 39 39 40 41 42 43 44 45 45 46 47 46 46 47 47 48 49 50 52 53 53
13 14 15 15 18 18 16 20 22 24 25 27 28 29 29 30 31 31 32 34 35 36 36 37 37 38 38 39 39 39 40 41 42 43 43 44 45 45 45 46 46 46 48 49 50 52 52 54 55
Wind_Direction
224 219 217 216 214 214 220 229 229 230 229 230 233 226 224 219 214 217 229 230 228 225 222 220 213 208 207 208 210 215 220 223 224 224 224 225 226 228 230 231 231 232 233 237 247 252 251 254 259
231 222 219 218 215 213 226 231 229 229 230 232 234 232 228 222 224 226 231 228 231 230 223 220 213 209 208 209 212 218 223 225 223 221 222 223 225 227 229 230 226 226 231 239 243 246 251 258 265
237 228 222 220 219 213 222 231 229 229 230 232 230 230 233 232 238 240 241 239 236 234 225 220 213 208 208 209 212 216 221 223 221 219 220 220 222 225 224 224 222 224 234 240 242 252 261 267 274
241 234 228 225 222 220 223 230 229 229 230 233 235 240 250 254 255 257 251 243 240 238 228 220 213 208 208 209 212 215 219 219 217 217 218 219 220 219 219 221 222 226 234 239 247 258 270 277 283
241 239 234 229 224 223 229 232 232 231 232 236 239 247 259 266 267 274 270 256 243 238 227 219 214 211 210 210 211 213 215 215 214 214 216 216 215 216 219 221 223 225 230 240 252 265 277 285 289
239 241 241 234 225 225 229 232 233 233 233 235 239 248 255 265 273 282 280 265 252 241 224 217 215 213 211 209 210 211 212 212 212 214 213 213 215 217 219 219 221 223 227 239 255 270 282 289 294
238 240 241 235 225 225 227 230 230 231 231 233 237 244 251 263 274 285 284 271 257 243 225 216 214 210 208 208 209 211 211 211 211 212 213 214 215 216 217 219 224 226 231 249 266 278 285 292 298
237 238 237 233 228 225 227 230 231 231 231 235 237 241 250 259 271 283 285 276 258 241 227 215 212 208 207 207 208 210 210 211 211 212 213 215 215 217 220 228 234 236 246 258 270 282 289 292 297
236 236 234 233 231 226 228 230 232 234 234 235 237 241 246 253 263 275 277 274 264 242 225 213 207 206 206 207 207 208 210 211 212 212 213 216 219 222 230 239 244 247 255 262 271 279 288 292 296
235 235 233 233 231 227 229 229 231 233 233 234 235 236 241 248 258 269 269 267 262 242 223 211 205 204 206 206 207 210 211 212 214 216 219 220 223 231 239 245 250 256 262 268 273 277 286 291 295
234 233 232 233 233 230 230 229 232 233 232 232 231 233 236 241 254 263 263 263 258 241 222 209 203 203 205 207 209 211 213 216 219 221 222 225 231 239 245 251 256 261 265 270 275 279 283 287 290
232 232 232 233 233 231 230 231 232 233 233 233 232 234 234 236 246 257 259 258 251 236 223 209 206 206 208 210 212 214 216 220 223 226 228 233 241 246 250 255 259 261 266 270 273 277 279 283 286
231 231 231 232 233 232 231 232 233 232 233 235 234 234 235 237 242 251 256 254 244 233 222 212 211 210 210 212 215 218 220 224 229 234 238 244 248 252 255 258 260 262 265 269 271 274 276 278 282
230 230 231 231 233 232 231 232 233 232 233 235 234 233 232 233 239 247 250 249 240 232 224 217 214 214 214 215 219 223 225 230 235 239 245 249 253 256 259 261 262 264 266 268 270 272 273 275 277
229 229 229 229 230 230 230 231 233 232 232 234 234 231 232 232 238 244 246 242 238 230 224 219 219 220 219 219 223 227 231 237 241 245 249 252 256 259 261 263 264 266 267 268 269 269 271 272 274
226 225 226 226 226 226 227 229 231 231 230 231 232 232 233 232 237 242 242 242 238 230 227 224 224 225 226 227 230 233 238 242 246 249 253 256 259 260 262 265 267 268 269 269 268 269 270 271 273
223 221 222 224 223 222 223 225 228 228 227 228 230 231 233 234 239 242 240 241 238 234 231 230 229 231 233 234 236 238 241 246 250 253 256 258 259 261 265 268 267 268 269 270 270 271 273 274 276
220 219 219 220 220 218 221 225 226 225 226 226 228 230 233 235 240 242 241 241 239 239 238 236 237 239 240 240 240 242 246 250 252 254 256 259 261 264 269 269 270 271 271 272 274 275 274 275 276
218 216 218 219 218 217 219 222 224 224 225 225 227 229 232 233 238 243 242 240 241 242 242 240 239 243 245 245 244 246 249 252 254 256 258 261 264 267 269 272 273 273 274 275 277 277 277 276 276
218 216 217 218 217 217 218 219 222 223 225 225 226 229 231 235 239 242 243 240 240 244 244 244 244 246 248 248 248 249 252 255 257 260 259 263 265 270 273 278 280 278 282 282 281 282 280 279 280
217 214 214 215 216 217 219 220 222 224 225 226 227 230 232 236 240 241 242 242 241 244 245 247 249 250 250 251 253 252 253 259 264 263 266 268 271 275 283 285 286 287 288 288 285 285 283 285 285
217 215 214 213 214 218 218 223 224 225 226 228 230 233 237 239 240 241 243 244 244 246 248 250 252 255 256 256 258 259 260 263 266 269 272 274 276 281 286 287 290 290 289 290 289 289 289 290 289
216 213 211 212 214 217 219 222 229 227 229 230 233 236 237 240 241 242 243 245 246 249 251 255 259 261 264 265 266 266 267 269 273 274 277 279 282 286 289 290 291 291 291 290 290 290 291 290 289
214 211 210 211 215 219 220 223 232 231 231 233 235 238 242 243 243 244 246 246 247 249 253 258 262 264 266 266 267 270 272 274 276 278 283 285 287 289 289 290 290 290 291 291 292 291 291 290 289
211 206 208 212 215 222 223 223 231 233 233 235 238 240 243 245 246 246 247 248 249 251 255 258 261 263 267 268 270 274 277 278 281 285 288 290 289 290 289 290 290 290 291 293 292 292 291 290 288
207 203 198 209 218 225 228 227 232 235 236 237 239 241 243 246 248 249 249 250 253 256 258 261 263 267 270 272 275 279 281 283 284 286 287 289 289 291 291 291 290 290 290 291 292 292 291 290 289
205 204 203 206 213 223 229 231 234 235 237 238 240 241 243 246 249 251 251 253 255 259 262 265 269 273 274 275 276 278 280 282 283 285 286 287 289 289 289 290 290 289 290 291 291 290 289 289 289
203 206 209 209 219 229 236 237 237 236 238 240 241 241 243 246 248 251 254 256 258 262 266 269 271 274 276 277 278 278 279 280 281 283 286 288 288 287 287 287 288 288 289 290 290 291 290 289 289
209 209 210 212 217 226 242 244 240 240 241 241 243 246 248 250 254 256 259 260 263 266 269 271 272 275 277 278 278 278 278 279 281 282 284 285 285 284 285 286 287 288 288 289 290 291 291 290 290
208 214 217 222 230 227 233 247 245 245 247 249 250 252 254 257 258 261 262 264 267 270 272 273 274 275 276 276 275 276 276 278 278 280 281 283 283 284 283 284 286 287 288 290 291 292 293 293 293
Height
5890 5892 5894 5896 5899 5902 5902 5901 5901 5902 5903 5904 5904 5904 5904 5904 5905 5907 5904 5902 5902 5902 5902 5903 5903 5904 5904 5905 5906 5907 5908 5908 5908 5908 5908 5908 5907 5907 5908 5908 5908 5908 5908 5907 5907 5907 5906 5906 5906
5888 5889 5892 5894 5897 5900 5900 5898 5899 5900 5901 5902 5903 5903 5903 5902 5902 5902 5901 5900 5900 5900 5900 5900 5901 5902 5902 5903 5904 5905 5906 5906 5906 5906 5906 5906 5906 5906 5906 5906 5906 5906 5906 5906 5906 5906 5905 5905 5904
5885 5886 5889 5891 5893 5896 5897 5896 5897 5899 5900 5901 5901 5901 5902 5901 5900 5900 5899 5899 5898 5898 5898 5898 5899 5900 5900 5901 5902 5903 5904 5904 5904 5904 5904 5905 5905 5905 5905 5905 5905 5905 5905 5905 5905 5905 5904 5904 5903
5881 5883 5886 5888 5889 5892 5892 5892 5894 5896 5898 5899 5900 5900 5900 5900 5899 5898 5897 5896 5896 5895 5895 5896 5896 5897 5898 5899 5900 5901 5902 5902 5902 5903 5903 5903 5903 5904 5904 5904 5905 5905 5905 5905 5904 5904 5903 5903 5902
5877 5879 5882 5883 5885 5887 5887 5889 5891 5893 5895 5897 5898 5899 5898 5898 5897 5896 5895 5895 5894 5894 5893 5894 5894 5895 5896 5897 5898 5899 5900 5901 5901 5901 5902 5902 5902 5902 5903 5903 5904 5904 5904 5904 5903 5903 5902 5902 5901
5873 5875 5878 5879 5881 5883 5884 5885 5888 5890 5892 5894 5896 5897 5896 5896 5896 5895 5894 5893 5892 5892 5892 5892 5892 5893 5894 5895 5896 5897 5898 5899 5899 5900 5900 5901 5901 5901 5902 5902 5903 5903 5903 5903 5903 5902 5901 5900 5900
5869 5871 5873 5875 5877 5879 5880 5881 5883 5886 5889 5891 5893 5895 5894 5894 5894 5893 5892 5891 5890 5890 5890 5890 5890 5891 5892 5893 5894 5895 5896 5897 5898 5898 5899 5899 5900 5900 5901 5901 5902 5902 5902 5902 5902 5901 5900 5899 5898
5863 5866 5868 5870 5872 5874 5875 5876 5879 5882 5885 5888 5891 5892 5893 5893 5892 5892 5890 5889 5889 5888 5888 5888 5889 5890 5891 5891 5893 5894 5895 5895 5896 5897 5897 5898 5899 5899 5900 5900 5901 5901 5901 5901 5901 5900 5899 5898 5897
5856 5860 5863 5865 5867 5869 5870 5872 5874 5878 5881 5884 5887 5890 5891 5891 5891 5890 5889 5888 5887 5887 5887 5887 5888 5888 5889 5890 5891 5892 5893 5894 5895 5895 5896 5897 5897 5898 5899 5899 5899 5900 5900 5899 5899 5898 5897 5896 5895
5850 5854 5858 5859 5861 5863 5865 5867 5869 5873 5877 5881 5884 5886 5888 5889 5889 5889 5888 5887 5886 5886 5885 5886 5886 5887 5888 5889 5889 5891 5892 5892 5893 5894 5895 5895 5896 5896 5897 5897 5897 5898 5898 5897 5897 5896 5895 5894 5893
5843 5848 5851 5853 5855 5858 5860 5862 5865 5869 5873 5877 5880 5882 5885 5886 5887 5887 5886 5885 5885 5884 5884 5884 5885 5885 5886 5887 5888 5889 5890 5891 5892 5893 5893 5894 5894 5895 5895 5895 5896 5896 5895 5895 5895 5894 5893 5892 5891
5837 5841 5844 5847 5850 5853 5855 5858 5860 5864 5869 5872 5876 5878 5881 5883 5884 5884 5884 5884 5883 5883 5883 5883 5883 5884 5885 5886 5887 5888 5889 5889 5890 5891 5891 5892 5892 5893 5893 5893 5893 5893 5893 5892 5892 5891 5890 5889 5888
5830 5834 5838 5841 5845 5848 5851 5854 5856 5860 5864 5867 5871 5874 5877 5879 5881 5882 5882 5882 5882 5881 5881 5881 5882 5882 5883 5884 5885 5886 5887 5888 5888 5889 5889 5890 5890 5890 5890 5890 5890 5890 5889 5889 5888 5888 5887 5886 5885
5824 5828 5832 5836 5840 5843 5847 5850 5853 5856 5859 5863 5867 5870 5873 5875 5877 5879 5879 5879 5880 5879 5879 5880 5880 5881 5882 5882 5883 5884 5885 5886 5886 5887 5887 5887 5888 5888 5888 5887 5887 5886 5886 5885 5885 5884 5883 5882 5881
5818 5823 5827 5830 5834 5838 5842 5846 5849 5851 5855 5858 5862 5866 5869 5871 5874 5875 5876 5877 5877 5877 5877 5878 5878 5879 5880 5880 5881 5882 5883 5883 5884 5884 5884 5884 5884 5885 5884 5884 5883 5883 5882 5881 5880 5879 5878 5877 5876
5813 5817 5821 5825 5829 5833 5840 5842 5844 5846 5850 5854 5858 5861 5864 5867 5869 5871 5872 5873 5874 5874 5875 5876 5876 5877 5877 5878 5879 5880 5880 5881 5881 5881 5881 5881 5881 5881 5880 5880 5879 5878 5877 5876 5875 5874 5873 5871 5870
5808 5812 5815 5819 5823 5828 5834 5836 5839 5842 5846 5850 5853 5857 5860 5863 5865 5867 5868 5870 5871 5872 5872 5873 5874 5874 5875 5876 5876 5877 5877 5877 5877 5877 5877 5877 5876 5876 5875 5874 5873 5872 5871 5870 5869 5868 5866 5865 5864
5804 5807 5811 5814 5818 5823 5827 5831 5834 5838 5842 5845 5849 5853 5856 5859 5861 5862 5864 5866 5867 5869 5870 5870 5871 5871 5872 5873 5873 5873 5873 5873 5873 5873 5872 5871 5871 5870 5870 5868 5867 5866 5864 5863 5862 5860 5859 5858 5856
5798 5802 5806 5809 5813 5819 5822 5826 5830 5834 5838 5841 5845 5848 5851 5854 5856 5859 5861 5863 5864 5865 5866 5867 5868 5868 5869 5869 5869 5868 5868 5868 5867 5867 5866 5865 5865 5864 5863 5862 5861 5859 5857 5855 5854 5853 5852 5851 5850
5794 5798 5802 5805 5809 5814 5818 5822 5826 5829 5833 5837 5840 5844 5847 5850 5852 5855 5856 5858 5860 5861 5862 5863 5863 5864 5864 5864 5864 5863 5863 5862 5861 5860 5859 5859 5858 5857 5857 5856 5854 5852 5850 5849 5849 5847 5844 5844 5842
5790 5794 5798 5801 5805 5810 5815 5818 5821 5825 5828 5832 5836 5839 5842 5845 5847 5850 5852 5853 5855 5856 5857 5858 5858 5859 5859 5858 5858 5857 5857 5857 5856 5855 5854 5852 5851 5851 5850 5849 5847 5845 5844 5842 5841 5839 5837 5836 5834
5786 5790 5793 5798 5803 5807 5812 5815 5817 5820 5824 5827 5830 5834 5837 5840 5842 5844 5846 5848 5849 5851 5852 5852 5853 5853 5853 5852 5852 5852 5851 5850 5850 5848 5846 5845 5844 5843 5842 5841 5840 5838 5836 5834 5832 5831 5829 5827 5825
5782 5786 5790 5794 5798 5803 5807 5811 5813 5815 5819 5822 5825 5829 5832 5834 5836 5838 5841 5843 5845 5846 5847 5847 5848 5848 5847 5846 5846 5845 5844 5843 5841 5840 5839 5838 5837 5836 5835 5834 5833 5831 5828 5826 5825 5822 5820 5818 5816
5779 5783 5787 5791 5796 5800 5803 5808 5809 5810 5814 5818 5821 5824 5826 5829 5831 5833 5835 5837 5839 5841 5841 5842 5842 5842 5841 5840 5839 5838 5837 5835 5833 5831 5831 5830 5829 5828 5827 5825 5823 5822 5820 5818 5816 5814 5812 5809 5807
5776 5781 5786 5791 5794 5797 5798 5802 5804 5806 5809 5813 5816 5819 5821 5824 5826 5828 5830 5831 5833 5835 5836 5836 5836 5836 5835 5834 5833 5831 5830 5828 5826 5825 5824 5823 5822 5820 5819 5817 5814 5813 5811 5808 5807 5804 5802 5799 5797
5774 5779 5786 5791 5794 5794 5794 5797 5799 5802 5805 5808 5811 5814 5816 5818 5820 5822 5824 5825 5827 5828 5829 5829 5829 5829 5828 5827 5826 5825 5823 5822 5820 5818 5817 5815 5814 5812 5810 5808 5805 5803 5801 5799 5796 5794 5791 5788 5785
5771 5775 5780 5785 5788 5791 5791 5792 5795 5798 5801 5803 5806 5809 5811 5813 5815 5816 5817 5819 5820 5821 5822 5822 5822 5821 5820 5820 5819 5817 5816 5814 5812 5811 5809 5807 5805 5803 5800 5798 5796 5793 5791 5788 5785 5782 5779 5776 5773
5769 5773 5776 5781 5785 5788 5788 5789 5791 5794 5797 5799 5801 5803 5805 5807 5809 5810 5811 5812 5813 5814 5814 5814 5813 5813 5812 5811 5810 5809 5807 5806 5804 5802 5800 5797 5795 5793 5790 5788 5785 5783 5780 5777 5773 5770 5766 5763 5759
5768 5771 5773 5778 5781 5785 5786 5788 5787 5789 5792 5794 5796 5798 5799 5801 5802 5803 5804 5805 5806 5806 5806 5805 5805 5804 5803 5802 5801 5799 5798 5796 5794 5792 5790 5788 5786 5783 5780 5778 5775 5772 5768 5765 5761 5757 5753 5749 5745
5765 5768 5771 5775 5777 5779 5783 5784 5782 5784 5786 5788 5790 5791 5793 5794 5795 5796 5797 5797 5797 5797 5797 5796 5795 5795 5793 5792 5791 5789 5788 5786 5785 5782 5780 5778 5776 5773 5769 5767 5764 5760 5756 5752 5748 5744 5739 5735 5730